| time (UTC) | temp F | wind direction | speed knots | gust knots | rain 1hr in | rain 24hr in | rain mn in | humidity % | barometer mb |
| 20260505024515 | 60 | 186 | 3.5 | 7.0 | 0.00 | 0.00 | 0.00 | 45 | 1011.1 |
| 20260505024016 | 60 | 203 | 4.3 | 10.4 | 0.00 | 0.00 | 0.00 | 45 | 1011.0 |
| 20260505023515 | 60 | 197 | 4.3 | 10.4 | 0.00 | 0.00 | 0.00 | 44 | 1011.0 |
| 20260505023013 | 60 | 201 | 4.3 | 9.6 | 0.00 | 0.00 | 0.00 | 44 | 1011.0 |
| 20260505022514 | 61 | 198 | 4.3 | 8.7 | 0.00 | 0.00 | 0.00 | 44 | 1011.1 |
| 20260505022017 | 61 | 182 | 4.3 | 7.8 | 0.00 | 0.00 | 0.00 | 43 | 1011.1 |
| 20260505021512 | 61 | 160 | 4.3 | 9.6 | 0.00 | 0.00 | 0.00 | 43 | 1011.1 |
| 20260505021018 | 61 | 213 | 5.2 | 9.6 | 0.00 | 0.00 | 0.00 | 43 | 1011.1 |
| 20260505020552 | 62 | 240 | 3.5 | 10.4 | 0.00 | 0.00 | 0.00 | 42 | 1011.0 |
| 20260505020537 | 61 | 216 | 4.3 | 10.4 | 0.00 | 0.00 | 0.00 | 43 | 1011.1 |
| 20260505015752 | 62 | 200 | 3.5 | 7.8 | 0.00 | 0.00 | 0.00 | 42 | 1011.0 |
| 20260505015010 | 62 | 224 | 4.3 | 8.7 | 0.00 | 0.00 | 0.00 | 42 | 1011.0 |
| 20260505014509 | 62 | 175 | 5.2 | 12.2 | 0.00 | 0.00 | 0.00 | 42 | 1011.0 |
| 20260505014010 | 62 | 201 | 5.2 | 12.2 | 0.00 | 0.00 | 0.00 | 41 | 1010.9 |
| 20260505013510 | 63 | 163 | 5.2 | 13.9 | 0.00 | 0.00 | 0.00 | 41 | 1010.8 |
| 20260505013014 | 63 | 265 | 5.2 | 13.9 | 0.00 | 0.00 | 0.00 | 41 | 1010.8 |
| 20260505012510 | 63 | 212 | 4.3 | 12.2 | 0.00 | 0.00 | 0.00 | 41 | 1010.7 |
| 20260505012257 | 63 | 189 | 5.2 | 12.2 | 0.00 | 0.00 | 0.00 | 41 | 1010.7 |
| 20260505011508 | 63 | 182 | 6.1 | 13.0 | 0.00 | 0.00 | 0.00 | 40 | 1010.6 |
| 20260505011014 | 64 | 183 | 5.2 | 13.0 | 0.00 | 0.00 | 0.00 | 40 | 1010.5 |
| 20260505010505 | 64 | 211 | 5.2 | 11.3 | 0.00 | 0.00 | 0.00 | 40 | 1010.5 |
| 20260505010007 | 64 | 203 | 6.1 | 13.0 | 0.00 | 0.00 | 0.00 | 39 | 1010.4 |
| 20260505005507 | 64 | 251 | 5.2 | 13.0 | 0.00 | 0.00 | 0.00 | 38 | 1010.3 |
| 20260505005009 | 64 | 214 | 5.2 | 11.3 | 0.00 | 0.00 | 0.00 | 38 | 1010.2 |
| 20260505004511 | 64 | 220 | 6.1 | 14.8 | 0.00 | 0.00 | 0.00 | 38 | 1010.0 |
| 20260505004008 | 65 | 175 | 7.0 | 14.8 | 0.00 | 0.00 | 0.00 | 38 | 1010.0 |
| 20260505003506 | 65 | 188 | 5.2 | 12.2 | 0.00 | 0.00 | 0.00 | 37 | 1009.9 |
| 20260505003012 | 65 | 186 | 5.2 | 11.3 | 0.00 | 0.00 | 0.00 | 37 | 1009.7 |
| 20260505002506 | 65 | 195 | 6.1 | 14.8 | 0.00 | 0.00 | 0.00 | 36 | 1009.5 |
| 20260505002007 | 66 | 139 | 7.0 | 14.8 | 0.00 | 0.00 | 0.00 | 36 | 1009.4 |
| 20260505001746 | 66 | 247 | 7.0 | 15.6 | 0.00 | 0.00 | 0.00 | 36 | 1009.1 |
| 20260505001010 | 66 | 232 | 7.0 | 15.6 | 0.00 | 0.00 | 0.00 | 35 | 1009.0 |
| 20260505000505 | 67 | 194 | 7.0 | 18.2 | 0.00 | 0.00 | 0.00 | 34 | 1008.9 |
| 20260505000008 | 67 | 232 | 6.1 | 18.2 | 0.00 | 0.00 | 0.00 | 33 | 1008.7 |
| 20260504235507 | 68 | 201 | 6.1 | 15.6 | 0.00 | 0.00 | 0.00 | 33 | 1008.8 |
| 20260504235010 | 68 | 239 | 8.7 | 17.4 | 0.00 | 0.00 | 0.00 | 31 | 1008.6 |
| 20260504234745 | 69 | 188 | 6.1 | 17.4 | 0.00 | 0.00 | 0.00 | 31 | 1008.5 |
| 20260504234000 | 69 | 220 | 3.5 | 8.7 | 0.00 | 0.00 | 0.00 | 28 | 1008.4 |
| 20260504233735 | 70 | 166 | 3.5 | 9.6 | 0.00 | 0.00 | 0.00 | 28 | 1008.2 |
| 20260504232953 | 70 | 265 | 3.5 | 9.6 | 0.00 | 0.00 | 0.00 | 27 | 1008.2 |
| 20260504232453 | 70 | 241 | 2.6 | 7.8 | 0.00 | 0.00 | 0.00 | 27 | 1008.1 |
| 20260504231954 | 71 | 243 | 2.6 | 7.8 | 0.00 | 0.00 | 0.00 | 27 | 1008.0 |
| 20260504231451 | 71 | 276 | 2.6 | 6.1 | 0.00 | 0.00 | 0.00 | 26 | 1007.9 |
| 20260504230952 | 71 | 221 | 3.5 | 10.4 | 0.00 | 0.00 | 0.00 | 26 | 1007.9 |
| 20260504230445 | 71 | 257 | 4.3 | 10.4 | 0.00 | 0.00 | 0.00 | 26 | 1007.9 |
| 20260504225944 | 71 | 199 | 3.5 | 8.7 | 0.00 | 0.00 | 0.00 | 26 | 1007.8 |
| 20260504225722 | 71 | 234 | 2.6 | 7.8 | 0.00 | 0.00 | 0.00 | 26 | 1007.8 |
| 20260504225353 | 71 | 278 | 4.3 | 10.4 | 0.00 | 0.00 | 0.00 | 25 | 1007.8 |
| 20260504225348 | 71 | 245 | 3.5 | 9.6 | 0.00 | 0.00 | 0.00 | 25 | 1007.7 |
| 20260504225035 | 71 | 230 | 2.6 | 7.0 | 0.00 | 0.00 | 0.00 | 26 | 1007.7 |
| 20260504223438 | 72 | 228 | 5.2 | 10.4 | 0.00 | 0.00 | 0.00 | 24 | 1007.7 |
| 20260504222937 | 72 | 247 | 5.2 | 12.2 | 0.00 | 0.00 | 0.00 | 25 | 1007.6 |
| 20260504222435 | 72 | 278 | 5.2 | 14.8 | 0.00 | 0.00 | 0.00 | 25 | 1007.6 |
| 20260504221934 | 72 | 236 | 6.1 | 14.8 | 0.00 | 0.00 | 0.00 | 26 | 1007.6 |
| 20260504221435 | 72 | 230 | 6.1 | 14.8 | 0.00 | 0.00 | 0.00 | 25 | 1007.6 |
| 20260504220935 | 72 | 231 | 4.3 | 10.4 | 0.00 | 0.00 | 0.00 | 25 | 1007.6 |
| 20260504220710 | 72 | 210 | 3.5 | 9.6 | 0.00 | 0.00 | 0.00 | 26 | 1007.6 |
| 20260504220208 | 72 | 227 | 3.5 | 9.6 | 0.00 | 0.00 | 0.00 | 25 | 1007.7 |
| 20260504215422 | 72 | 221 | 5.2 | 16.5 | 0.00 | 0.00 | 0.00 | 25 | 1007.6 |
| 20260504214919 | 72 | 229 | 5.2 | 16.5 | 0.00 | 0.00 | 0.00 | 23 | 1007.7 |
| 20260504214421 | 73 | 267 | 4.3 | 11.3 | 0.00 | 0.00 | 0.00 | 24 | 1007.7 |
| 20260504213920 | 73 | 254 | 4.3 | 9.6 | 0.00 | 0.00 | 0.00 | 24 | 1007.8 |
| 20260504213419 | 73 | 205 | 3.5 | 9.6 | 0.00 | 0.00 | 0.00 | 24 | 1007.8 |
| 20260504212915 | 73 | 274 | 4.3 | 15.6 | 0.00 | 0.00 | 0.00 | 25 | 1007.7 |
| 20260504212415 | 73 | 261 | 5.2 | 15.6 | 0.00 | 0.00 | 0.00 | 24 | 1007.7 |
| 20260504211930 | 73 | 218 | 4.3 | 10.4 | 0.00 | 0.00 | 0.00 | 24 | 1007.8 |
| 20260504211411 | 73 | 261 | 4.3 | 13.0 | 0.00 | 0.00 | 0.00 | 24 | 1007.8 |
| 20260504210913 | 73 | 216 | 5.2 | 13.0 | 0.00 | 0.00 | 0.00 | 23 | 1007.8 |
| 20260504210411 | 73 | 206 | 5.2 | 11.3 | 0.00 | 0.00 | 0.00 | 24 | 1007.7 |
| 20260504205912 | 73 | 261 | 5.2 | 11.3 | 0.00 | 0.00 | 0.00 | 23 | 1007.8 |
| 20260504205644 | 73 | 278 | 5.2 | 11.3 | 0.00 | 0.00 | 0.00 | 23 | 1007.7 |
| 20260504204907 | 73 | 281 | 5.2 | 11.3 | 0.00 | 0.00 | 0.00 | 24 | 1007.9 |
| 20260504204409 | 73 | 274 | 5.2 | 9.6 | 0.00 | 0.00 | 0.00 | 24 | 1007.7 |
| 20260504203909 | 72 | 231 | 6.1 | 14.8 | 0.00 | 0.00 | 0.00 | 23 | 1007.7 |
| 20260504203409 | 73 | 226 | 7.0 | 14.8 | 0.00 | 0.00 | 0.00 | 23 | 1007.7 |
| 20260504203149 | 73 | 253 | 7.0 | 13.9 | 0.00 | 0.00 | 0.00 | 23 | 1007.6 |
| 20260504202410 | 73 | 240 | 6.1 | 13.9 | 0.00 | 0.00 | 0.00 | 22 | 1007.7 |
| 20260504201923 | 73 | 243 | 5.2 | 15.6 | 0.00 | 0.00 | 0.00 | 23 | 1007.7 |
| 20260504201648 | 73 | 222 | 5.2 | 15.6 | 0.00 | 0.00 | 0.00 | 24 | 1007.7 |
| 20260504200900 | 73 | 249 | 7.8 | 21.7 | 0.00 | 0.00 | 0.00 | 24 | 1007.7 |
| 20260504200352 | 73 | 205 | 8.7 | 21.7 | 0.00 | 0.00 | 0.00 | 22 | 1007.7 |
| 20260504195846 | 73 | 211 | 7.0 | 13.9 | 0.00 | 0.00 | 0.00 | 22 | 1007.7 |
| 20260504195345 | 74 | 215 | 6.1 | 13.9 | 0.00 | 0.00 | 0.00 | 22 | 1007.9 |
| 20260504194844 | 74 | 291 | 5.2 | 13.9 | 0.00 | 0.00 | 0.00 | 22 | 1007.8 |
| 20260504194346 | 74 | 240 | 6.1 | 13.0 | 0.00 | 0.00 | 0.00 | 22 | 1007.8 |
| 20260504194124 | 73 | 197 | 7.0 | 13.0 | 0.00 | 0.00 | 0.00 | 22 | 1007.9 |
| 20260504193345 | 73 | 236 | 7.0 | 12.2 | 0.00 | 0.00 | 0.00 | 22 | 1007.7 |
| 20260504192846 | 73 | 207 | 7.8 | 15.6 | 0.00 | 0.00 | 0.00 | 22 | 1007.8 |
| 20260504192345 | 73 | 232 | 7.0 | 15.6 | 0.00 | 0.00 | 0.00 | 21 | 1007.7 |
| 20260504191845 | 73 | 275 | 6.1 | 13.0 | 0.00 | 0.00 | 0.00 | 22 | 1007.7 |
| 20260504191345 | 73 | 302 | 7.0 | 13.0 | 0.00 | 0.00 | 0.00 | 22 | 1007.7 |
| 20260504190848 | 73 | 217 | 7.0 | 18.2 | 0.00 | 0.00 | 0.00 | 22 | 1007.8 |
| 20260504190626 | 73 | 167 | 7.8 | 18.2 | 0.00 | 0.00 | 0.00 | 22 | 1007.8 |
| 20260504185845 | 73 | 220 | 7.0 | 13.9 | 0.00 | 0.00 | 0.00 | 22 | 1008.0 |
| 20260504185627 | 73 | 243 | 6.1 | 13.9 | 0.00 | 0.00 | 0.00 | 24 | 1008.1 |
| 20260504184845 | 73 | 264 | 6.1 | 15.6 | 0.00 | 0.00 | 0.00 | 22 | 1008.1 |
| 20260504184347 | 73 | 193 | 5.2 | 15.6 | 0.00 | 0.00 | 0.00 | 24 | 1008.1 |
| 20260504183848 | 73 | 161 | 5.2 | 18.2 | 0.00 | 0.00 | 0.00 | 23 | 1008.2 |
| 20260504183341 | 73 | 149 | 6.1 | 18.2 | 0.00 | 0.00 | 0.00 | 23 | 1008.2 |
| 20260504183127 | 73 | 217 | 6.1 | 17.4 | 0.00 | 0.00 | 0.00 | 23 | 1008.3 |
| 20260504182337 | 72 | 253 | 7.0 | 17.4 | 0.00 | 0.00 | 0.00 | 22 | 1008.2 |
| 20260504181841 | 72 | 203 | 7.8 | 20.9 | 0.00 | 0.00 | 0.00 | 24 | 1008.2 |
| 20260504181335 | 73 | 142 | 7.0 | 20.9 | 0.00 | 0.00 | 0.00 | 22 | 1008.1 |
| 20260504180904 | 72 | 250 | 7.0 | 19.1 | 0.00 | 0.00 | 0.00 | 22 | 1008.1 |
| 20260504180854 | 73 | 236 | 6.1 | 15.6 | 0.00 | 0.00 | 0.00 | 23 | 1008.1 |
| 20260504175835 | 72 | 306 | 7.0 | 19.1 | 0.00 | 0.00 | 0.00 | 22 | 1008.2 |
| 20260504175335 | 73 | 224 | 6.1 | 14.8 | 0.00 | 0.00 | 0.00 | 24 | 1008.2 |
| 20260504174839 | 72 | 209 | 6.1 | 14.8 | 0.00 | 0.00 | 0.00 | 23 | 1008.2 |
| 20260504174415 | 72 | 247 | 5.2 | 10.4 | 0.00 | 0.00 | 0.00 | 23 | 1008.4 |
| 20260504174402 | 72 | 211 | 5.2 | 12.2 | 0.00 | 0.00 | 0.00 | 25 | 1008.3 |
| 20260504173330 | 71 | 292 | 7.0 | 21.7 | 0.00 | 0.00 | 0.00 | 24 | 1008.5 |
| 20260504172831 | 71 | 264 | 7.0 | 21.7 | 0.00 | 0.00 | 0.00 | 24 | 1008.5 |
| 20260504172331 | 71 | 255 | 7.0 | 18.2 | 0.00 | 0.00 | 0.00 | 24 | 1008.5 |
| 20260504171836 | 71 | 234 | 8.7 | 20.9 | 0.00 | 0.00 | 0.00 | 26 | 1008.6 |
| 20260504171613 | 71 | 217 | 7.0 | 20.9 | 0.00 | 0.00 | 0.00 | 24 | 1008.7 |
| 20260504171115 | 71 | 240 | 7.0 | 17.4 | 0.00 | 0.00 | 0.00 | 26 | 1008.7 |
| 20260504170330 | 70 | 195 | 7.8 | 17.4 | 0.00 | 0.00 | 0.00 | 25 | 1008.7 |
| 20260504170118 | 70 | 220 | 7.8 | 16.5 | 0.00 | 0.00 | 0.00 | 26 | 1008.7 |
| 20260504160111 | 69 | 280 | 7.0 | 14.8 | 0.00 | 0.00 | 0.00 | 26 | 1009.1 |
| 20260504150822 | 66 | 220 | 7.0 | 12.2 | 0.00 | 0.00 | 0.00 | 30 | 1009.9 |
| 20260504150319 | 66 | 222 | 7.0 | 13.9 | 0.00 | 0.00 | 0.00 | 31 | 1010.0 |
| 20260504141309 | 63 | 285 | 6.1 | 13.9 | 0.00 | 0.00 | 0.00 | 34 | 1010.6 |
| 20260504140806 | 63 | 287 | 6.1 | 13.9 | 0.00 | 0.00 | 0.00 | 34 | 1010.5 |
| 20260504140307 | 62 | 243 | 6.1 | 13.9 | 0.00 | 0.00 | 0.00 | 36 | 1010.5 |
| 20260504130758 | 59 | 245 | 5.2 | 12.2 | 0.00 | 0.00 | 0.00 | 37 | 1011.1 |
| 20260504130252 | 59 | 248 | 4.3 | 12.2 | 0.00 | 0.00 | 0.00 | 38 | 1011.2 |
| 20260504120233 | 51 | 226 | 3.5 | 10.4 | 0.00 | 0.00 | 0.00 | 49 | 1011.7 |
| 20260504110223 | 46 | 203 | 0.0 | 0.0 | 0.00 | 0.00 | 0.00 | 55 | 1011.8 |
| 20260504100446 | 45 | 203 | 0.0 | 0.0 | 0.00 | 0.00 | 0.00 | 54 | 1011.7 |
| 20260504081653 | 44 | 209 | 0.9 | 2.6 | 0.00 | 0.00 | 0.00 | 57 | 1011.6 |
| 20260504081152 | 44 | 209 | 0.9 | 2.6 | 0.00 | 0.00 | 0.00 | 57 | 1011.6 |
| 20260504080652 | 44 | 208 | 1.7 | 2.6 | 0.00 | 0.00 | 0.00 | 57 | 1011.4 |
| 20260504080443 | 44 | 214 | 0.9 | 2.6 | 0.00 | 0.00 | 0.00 | 56 | 1011.6 |
| 20260504070150 | 41 | 268 | 0.9 | 1.7 | 0.00 | 0.00 | 0.00 | 62 | 1011.5 |
| 20260504060134 | 37 | 241 | 0.0 | 1.7 | 0.00 | 0.00 | 0.00 | 66 | 1011.4 |
| 20260504050621 | 36 | 284 | 0.0 | 1.7 | 0.00 | 0.00 | 0.00 | 62 | 1011.6 |
| 20260504050108 | 36 | 284 | 0.0 | 1.7 | 0.00 | 0.00 | 0.00 | 61 | 1011.6 |
| 20260504045607 | 36 | 284 | 0.0 | 0.0 | 0.00 | 0.00 | 0.00 | 61 | 1011.7 |
| 20260504045108 | 36 | 284 | 0.0 | 0.0 | 0.00 | 0.00 | 0.00 | 61 | 1011.6 |
| 20260504044845 | 36 | 284 | 0.0 | 0.0 | 0.00 | 0.00 | 0.00 | 61 | 1011.5 |
| 20260504044108 | 36 | 284 | 0.0 | 0.0 | 0.00 | 0.00 | 0.00 | 61 | 1011.6 |
| 20260504043607 | 37 | 284 | 0.0 | 0.0 | 0.00 | 0.00 | 0.00 | 60 | 1011.5 |
| 20260504043109 | 37 | 284 | 0.0 | 0.0 | 0.00 | 0.00 | 0.00 | 60 | 1011.4 |
| 20260504042604 | 37 | 284 | 0.0 | 0.0 | 0.00 | 0.00 | 0.00 | 60 | 1011.4 |
| 20260504042101 | 37 | 284 | 0.0 | 0.0 | 0.00 | 0.00 | 0.00 | 60 | 1011.4 |
| 20260504041603 | 37 | 284 | 0.0 | 0.0 | 0.00 | 0.00 | 0.00 | 60 | 1011.4 |
| 20260504041101 | 37 | 284 | 0.0 | 0.0 | 0.00 | 0.00 | 0.00 | 60 | 1011.5 |
| 20260504040600 | 37 | 284 | 0.0 | 0.0 | 0.00 | 0.00 | 0.00 | 59 | 1011.5 |
| 20260504035558 | 37 | 284 | 0.0 | 0.0 | 0.00 | 0.00 | 0.00 | 58 | 1011.3 |
| 20260504035051 | 38 | 284 | 0.0 | 0.0 | 0.00 | 0.00 | 0.00 | 58 | 1011.3 |
| 20260504034551 | 38 | 284 | 0.0 | 0.0 | 0.00 | 0.00 | 0.00 | 57 | 1011.2 |
| 20260504034051 | 38 | 284 | 0.0 | 0.0 | 0.00 | 0.00 | 0.00 | 57 | 1011.3 |
| 20260504033554 | 38 | 284 | 0.0 | 0.0 | 0.00 | 0.00 | 0.00 | 57 | 1011.3 |
| 20260504033054 | 38 | 284 | 0.0 | 0.0 | 0.00 | 0.00 | 0.00 | 57 | 1011.2 |
| 20260504032552 | 38 | 284 | 0.0 | 0.0 | 0.00 | 0.00 | 0.00 | 57 | 1011.2 |
| 20260504032051 | 39 | 284 | 0.0 | 0.0 | 0.00 | 0.00 | 0.00 | 56 | 1011.2 |
| 20260504031552 | 39 | 284 | 0.0 | 0.0 | 0.00 | 0.00 | 0.00 | 56 | 1011.2 |
| 20260504031055 | 39 | 284 | 0.0 | 0.0 | 0.00 | 0.00 | 0.00 | 56 | 1011.3 |
| 20260504030551 | 39 | 284 | 0.0 | 0.0 | 0.00 | 0.00 | 0.00 | 56 | 1011.3 |
| 20260504025552 | 40 | 284 | 0.0 | 0.0 | 0.00 | 0.00 | 0.00 | 55 | 1011.2 |